FW2567 Weather Reports


Display with metric or nautical units.
time (UTC)temp
F
wind
direction
speed
MPH
gust
MPH
rain 1hr
in
rain 24hr
in
rain mn
in
humidity
%
barometer
mb
20200330010035 50 278 4.0 0.0 0.00 0.12 0.00 65 1.1
20200330003031 51 274 3.0 0.0 0.00 0.12 0.00 61 1.1
20200330001544 53 258 6.0 0.0 0.00 0.12 0.00 58 1.1
20200330000113 54 249 6.0 0.0 0.00 0.12 0.00 57 1.1
20200329234551 53 244 6.0 0.0 0.00 0.12 0.00 57 1.1
20200329233035 54 256 7.0 0.0 0.00 0.12 0.00 57 1.1
20200329231536 54 251 8.0 0.0 0.00 0.12 0.00 57 1.1
20200329230047 54 238 6.0 0.0 0.00 0.12 0.00 58 1.1
20200329224534 54 223 6.0 0.0 0.00 0.12 0.00 58 1.1
20200329223044 54 224 9.0 0.0 0.00 0.12 0.00 59 1.1
20200329221536 53 226 8.0 0.0 0.00 0.12 0.00 61 1.1
20200329220029 52 211 8.0 0.0 0.00 0.12 0.00 64 1.1
20200329214531 52 246 6.0 0.0 0.00 0.12 0.00 64 1.1
20200329213038 52 245 6.0 0.0 0.00 0.12 0.00 67 1.1
20200329211548 50 244 6.0 0.0 0.00 0.12 0.00 69 1.1
20200329210035 50 262 8.0 0.0 0.00 0.12 0.00 69 1.1
20200329204539 50 249 7.0 0.0 0.00 0.12 0.00 69 1.1
20200329203031 50 257 6.0 0.0 0.00 0.12 0.00 70 1.1
20200329201548 50 267 7.0 0.0 0.00 0.12 0.00 67 1.1
20200329200031 51 233 7.0 0.0 0.00 0.12 0.00 68 1.1
20200329194544 50 264 6.0 0.0 0.00 0.12 0.00 72 1.1
20200329193033 50 285 7.0 0.0 0.00 0.12 0.00 71 1.1
20200329191540 51 282 8.0 0.0 0.00 0.12 0.00 69 1.1
20200329190033 50 271 8.0 0.0 0.00 0.12 0.00 69 1.1
20200329184531 51 257 9.0 0.0 0.00 0.12 0.00 70 1.1
20200329183036 51 231 9.0 0.0 0.00 0.12 0.00 72 1.1
20200329181536 50 161 3.0 0.0 0.00 0.12 0.00 78 1.1
20200329180036 46 56 2.0 0.0 0.00 0.12 0.00 83 1.1
20200329174527 45 36 2.0 0.0 0.01 0.12 0.00 85 1.1
20200329173030 44 343 0.0 0.0 0.01 0.12 0.00 86 1.1
20200329171533 44 274 2.0 0.0 0.01 0.12 0.00 88 1.1
20200329170037 44 183 3.0 0.0 0.01 0.12 0.00 90 1.1
20200329164531 43 136 2.0 0.0 0.00 0.11 0.00 92 1.1
20200329163031 42 45 2.0 0.0 0.01 0.11 0.00 93 1.1
20200329161534 41 83 2.0 0.0 0.02 0.11 0.00 93 1.1
20200329160040 41 133 2.0 0.0 0.02 0.11 0.00 93 1.1
20200329154536 41 358 4.0 0.0 0.03 0.11 0.00 93 1.1
20200329153108 40 335 4.0 0.0 0.03 0.10 0.00 94 1.1
20200329151617 40 296 3.0 0.0 0.02 0.09 0.00 95 1.1
20200329150031 40 56 0.0 0.0 0.04 0.09 0.00 94 1.1
20200329144534 40 274 0.0 0.0 0.04 0.08 0.00 94 1.1
20200329143033 40 251 1.0 0.0 0.05 0.07 0.00 95 1.1
20200329141537 39 262 3.0 0.0 0.06 0.07 0.00 96 1.1
20200329140043 38 219 0.0 0.0 0.05 0.05 0.00 96 1.1
20200329134534 38 247 0.0 0.0 0.04 0.04 0.00 96 1.1
20200329133047 38 247 0.0 0.0 0.02 0.02 0.00 96 1.1
20200329131532 38 247 0.0 0.0 0.01 0.01 0.00 96 1.1
20200329130027 37 168 3.0 0.0 0.00 0.00 0.00 96 1.1
20200329124602 37 227 1.0 0.0 0.00 0.00 0.00 96 1.1
20200329123036 37 67 0.0 0.0 0.00 0.00 0.00 96 1.1
20200329121539 36 99 1.0 0.0 0.00 0.00 0.00 96 1.1
20200329120034 35 100 1.0 0.0 0.00 0.00 0.00 96 1.1
20200329114528 35 80 0.0 0.0 0.00 0.00 0.00 96 1.1
20200329113041 35 132 2.0 0.0 0.00 0.00 0.00 95 1.1
20200329111532 35 132 3.0 0.0 0.00 0.00 0.00 95 1.1
20200329110031 35 248 1.0 0.0 0.00 0.00 0.00 95 1.1
20200329104540 36 250 1.0 0.0 0.00 0.00 0.00 95 1.1
20200329103038 36 151 2.0 0.0 0.00 0.00 0.00 95 1.1
20200329101537 35 167 1.0 0.0 0.00 0.00 0.00 94 1.1
20200329100039 35 167 1.0 0.0 0.00 0.00 0.00 94 1.1
20200329094535 36 157 0.0 0.0 0.00 0.00 0.00 94 1.1
20200329093036 36 198 0.0 0.0 0.00 0.00 0.00 94 1.1
20200329091535 36 154 0.0 0.0 0.00 0.00 0.00 94 1.1
20200329090032 36 143 0.0 0.0 0.00 0.00 0.00 93 1.1
20200329084537 37 201 0.0 0.0 0.00 0.00 0.00 93 1.1
20200329083037 37 157 0.0 0.0 0.00 0.00 0.00 92 1.1
20200329081537 37 137 1.0 0.0 0.00 0.00 0.00 92 1.1
20200329074546 38 158 0.0 0.0 0.00 0.00 0.00 91 1.1
20200329073034 39 135 0.0 0.0 0.00 0.00 0.00 90 1.1
20200329071537 39 135 0.0 0.0 0.00 0.00 0.00 90 1.1
20200329070047 39 166 2.0 0.0 0.00 0.00 0.00 89 1.1
20200329064529 39 149 1.0 0.0 0.00 0.00 0.00 88 1.1
20200329061530 40 171 2.0 0.0 0.00 0.00 0.00 87 1.1
20200329060033 40 202 0.0 0.0 0.00 0.00 0.00 86 1.1
20200329054533 41 202 0.0 0.0 0.00 0.00 0.00 86 1.1
20200329053032 41 208 1.0 0.0 0.00 0.00 0.00 85 1.1
20200329051529 41 225 0.0 0.0 0.00 0.00 0.00 85 1.1
20200329050051 41 243 2.0 0.0 0.00 0.00 0.00 84 1.1
20200329044535 41 157 0.0 0.0 0.00 0.00 0.00 83 1.1
20200329043039 42 167 1.0 0.0 0.00 0.00 0.00 82 1.1
20200329041606 43 135 0.0 0.0 0.00 0.00 0.00 80 1.1
20200329040044 43 100 0.0 0.0 0.00 0.00 0.00 79 1.1
20200329034553 44 90 0.0 0.0 0.00 0.00 0.00 79 1.1
20200329033043 44 85 2.0 0.0 0.00 0.00 0.00 77 1.1
20200329031539 45 89 0.0 0.0 0.00 0.00 0.00 76 1.1
20200329030036 46 297 1.0 0.0 0.00 0.00 0.00 75 1.1
20200329023033 47 303 4.0 0.0 0.00 0.00 0.00 70 1.1
20200329021530 48 285 6.0 0.0 0.00 0.00 0.00 70 1.1
20200329020048 48 304 7.0 0.0 0.00 0.00 0.00 71 1.1
20200329014529 48 316 6.0 0.0 0.00 0.00 0.00 71 1.1
20200329013032 49 306 6.0 0.0 0.00 0.00 0.00 72 1.1
20200329011541 49 311 5.0 0.0 0.00 0.00 0.00 71 1.1